SCP
0 0 0 0 0 0 0 0 0 0 0 0 0 0 0 0 0 0 0 0 0 0 0 0 0 0 0 0 0 0 0 0 0 0 0 0 0 0 0 0 0 0 0
0 0 1 0 0 0 0 0 0 0 0 0 0 0 0 0 0 0 0 0 0 0 0 0 0 0 0 0 0 0 0 0 0 0 0 0 0 0 0 0 0 0 0
0 0 0 0 1 1 0 0 0 0 0 0 0 0 0 0 0 0 0 0 0 0 0 0 0 0 0 0 0 0 0 0 0 0 0 0 0 0 0 0 0 0 0
0 0 0 1 1 1 1 0 0 0 0 0 0 0 0 0 0 0 0 0 0 0 0 0 0 0 0 0 0 0 0 0 0 0 0 0 0 0 0 0 0 0 0
0 0 0 1 1 1 1 1 0 0 0 0 0 0 0 0 0 0 0 0 0 0 0 0 0 0 0 0 0 0 0 0 0 0 0 0 0 0 0 0 0 0 0
0 0 1 1 1 1 1 1 1 0 0 0 0 0 0 0 0 0 0 0 0 0 0 0 0 0 0 0 0 0 0 0 0 0 0 0 0 0 1 0 0 0 0
0 0 1 2 2 1 1 1 1 1 1 0 0 0 0 0 0 0 0 0 0 0 0 0 0 0 0 0 0 0 0 0 0 0 0 0 0 0 1 1 0 0 0
0 0 1 2 2 2 1 1 1 1 1 1 0 0 0 0 0 0 0 0 0 0 0 0 0 0 0 0 0 0 0 0 0 0 0 0 0 0 0 1 1 0 0
0 0 0 3 2 2 1 1 2 2 2 1 1 1 1 1 0 0 0 0 0 0 0 0 0 0 0 0 0 0 0 0 0 0 0 0 0 0 0 0 1 0 0
0 0 0 1 2 1 1 2 2 2 2 2 1 1 1 1 1 1 0 0 0 0 0 0 0 0 0 0 0 0 0 0 0 0 0 0 1 0 0 0 1 1 0
0 0 0 0 1 1 1 1 2 2 2 2 1 1 1 0 0 0 0 0 0 0 0 0 0 0 0 0 0 0 0 0 0 0 0 0 1 0 0 0 1 1 1
0 0 0 0 1 1 1 1 1 1 1 1 1 1 1 0 0 0 1 0 0 0 0 0 0 0 0 0 0 0 0 0 0 0 0 1 0 0 0 0 0 1 1
0 0 0 2 2 1 1 1 2 1 1 1 1 1 1 0 0 1 1 1 0 0 0 0 0 0 0 0 0 0 0 -0 0 0 0 1 0 0 0 0 0 0 1
0 0 0 1 3 3 2 1 2 2 1 1 1 1 1 1 1 1 0 0 1 0 1 0 0 1 0 0 0 0 0 0 0 0 0 0 0 0 0 0 0 0 1
0 0 0 1 4 4 4 2 3 2 1 1 1 1 1 1 1 1 1 1 0 0 0 1 0 0 0 0 0 0 0 0 0 0 1 0 0 0 0 0 0 0 1
0 0 0 2 5 3 3 4 5 4 1 1 1 1 1 1 1 1 1 1 1 0 0 0 0 0 0 0 0 0 0 0 0 0 0 1 0 0 0 0 0 0 1
0 0 0 2 3 4 3 2 4 2 1 1 1 1 1 1 1 1 1 1 1 1 0 0 0 0 0 0 0 0 0 0 0 0 0 0 0 0 0 0 0 0 1
0 0 0 0 1 3 2 3 3 1 1 1 1 1 1 1 1 1 1 1 1 1 1 1 0 0 0 0 0 0 0 0 0 0 0 0 0 0 0 0 0 0 0
0 0 0 1 1 2 2 2 2 3 1 1 1 1 1 1 1 1 1 1 1 1 1 1 0 0 0 0 0 0 0 0 0 0 0 0 0 0 0 0 -0 0 1
0 0 0 1 3 3 2 3 1 1 1 1 1 1 1 1 1 2 1 1 1 1 1 0 0 0 0 0 0 0 0 0 0 0 0 0 0 0 0 0 0 0 1
0 0 1 1 2 3 2 1 1 1 1 1 1 1 1 1 1 1 1 1 1 1 0 0 0 0 0 0 0 0 0 0 0 0 0 0 0 0 0 0 0 0 0
0 0 0 1 2 2 2 1 1 1 0 0 0 1 1 1 1 1 1 1 1 1 0 0 0 0 0 0 0 0 0 0 0 0 0 0 0 0 0 0 0 1 1
0 0 0 1 1 1 2 1 1 1 1 1 0 0 1 1 1 1 1 1 0 0 0 0 0 0 0 0 0 0 0 0 0 0 0 0 0 0 0 0 0 0 1
0 0 0 1 1 1 1 1 1 0 0 0 1 0 1 1 0 1 0 0 0 0 0 0 0 0 0 0 0 -0 0 0 0 0 0 0 0 0 0 0 0 0 0
0 0 0 0 0 1 0 1 0 0 0 0 0 0 1 1 0 0 0 0 0 0 0 0 0 -0 -0 0 0 0 -0 0 0 -0 0 0 0 0 0 1 0 0 0
0 0 0 0 0 0 0 0 0 0 0 0 0 0 1 0 0 0 0 0 0 0 -0 -0 0 -0 0 0 0 0 0 0 0 0 0 0 0 0 0 0 1 0 1
Wind_Speed_500mb
23 13 24 25 22 18 15 14 14 11 8 8 9 12 12 14 17 20 23 23 21 21 20 18 19 22 24 25 26 29 31 32 31 30 28 28 25 24 21 18 13 17 20
29 17 25 26 23 21 17 17 16 14 12 10 10 12 14 16 17 18 21 22 21 20 20 22 19 19 21 23 24 27 29 32 36 34 32 27 29 29 27 25 16 23 25
32 21 27 25 25 23 19 20 18 18 16 14 11 12 14 17 19 19 19 21 21 18 19 21 25 23 17 21 23 24 27 30 34 37 35 29 22 30 34 30 23 26 28
31 22 26 26 29 27 22 22 22 21 18 16 12 13 15 18 20 21 20 19 20 19 20 21 23 26 23 17 20 23 24 28 30 34 34 25 22 33 33 39 31 28 27
31 25 28 30 29 30 27 26 21 20 17 14 13 15 18 19 21 21 22 22 23 26 27 26 26 23 23 23 18 18 22 24 26 28 24 27 23 32 33 34 37 30 29
23 32 29 33 32 33 33 29 24 20 16 15 13 16 18 21 22 23 23 26 29 30 31 31 30 25 25 29 27 25 22 24 24 22 24 23 31 31 31 33 36 35 31
22 29 36 35 37 38 40 36 30 25 20 18 18 19 21 22 20 22 26 31 33 33 35 36 35 33 33 36 37 36 33 28 25 21 23 25 29 33 44 32 35 37 34
23 32 38 36 42 44 47 44 39 33 28 25 26 24 24 25 24 26 33 39 37 38 39 42 41 41 39 37 39 39 39 36 26 25 25 28 30 40 41 44 38 34 36
27 34 38 44 46 51 52 51 48 42 37 33 32 31 28 28 28 30 42 42 39 40 43 47 49 48 48 44 43 42 42 39 36 28 31 29 36 41 42 44 38 36 34
30 36 38 40 41 53 57 60 55 48 44 41 38 36 34 34 33 36 37 40 38 38 37 40 42 44 47 51 49 50 47 46 39 31 32 30 34 39 42 38 36 36 36
36 37 40 43 39 43 51 57 60 54 50 46 43 41 40 32 25 34 35 38 46 42 40 36 34 35 38 43 47 48 47 41 34 33 32 40 43 48 49 41 39 35 35
46 40 43 45 47 43 40 43 49 58 55 50 43 31 28 23 25 29 31 46 44 40 35 32 29 30 32 26 27 32 36 38 37 36 34 41 45 41 43 42 39 38 36
50 34 41 53 58 52 43 44 36 37 36 35 34 32 29 26 25 27 25 28 33 29 26 25 24 23 19 22 32 27 38 28 35 38 39 43 47 49 45 41 37 39 38
47 41 39 51 60 61 48 48 42 35 38 33 31 35 31 26 25 24 24 26 27 25 28 22 23 28 36 33 28 31 41 28 29 33 46 49 45 47 46 41 38 40 40
49 43 40 52 67 65 67 51 49 45 41 36 33 30 29 27 27 26 26 29 27 28 27 27 29 35 34 30 28 30 39 38 41 24 33 43 50 44 46 41 39 42 41
49 44 37 53 70 65 63 61 63 58 43 40 32 29 33 29 27 26 30 40 33 30 29 34 36 29 30 29 29 33 33 31 47 31 34 49 47 40 45 44 37 40 42
48 44 39 52 67 70 62 71 59 47 46 37 31 31 31 31 28 32 30 35 37 36 37 35 35 33 29 29 34 29 32 35 36 43 40 31 26 28 36 42 38 38 41
47 45 40 45 57 66 56 59 56 46 41 36 29 27 30 31 31 30 33 38 39 36 33 35 32 31 31 30 30 25 28 29 37 36 32 31 29 26 23 23 37 37 40
47 49 45 47 53 55 50 48 49 47 37 31 27 27 28 29 27 37 36 41 39 35 34 32 30 35 31 33 24 29 26 29 25 27 24 30 32 28 28 29 23 34 40
38 39 41 46 55 57 46 49 42 41 34 29 26 26 28 28 29 38 38 45 38 38 38 32 29 27 29 32 29 26 25 24 29 30 30 29 28 28 29 24 24 30 40
33 34 39 47 49 56 49 48 45 39 30 26 25 25 28 26 33 35 39 40 37 37 32 32 32 35 34 33 24 27 29 31 29 29 30 28 29 29 29 33 29 24 33
25 30 34 38 48 51 47 44 38 31 24 22 21 23 23 26 29 34 37 35 37 36 34 30 36 34 35 33 28 21 16 26 36 33 33 31 30 28 33 33 32 31 29
23 29 34 41 47 48 40 39 32 26 21 21 21 21 23 22 28 30 30 32 32 31 32 28 34 36 35 33 36 22 15 17 30 34 37 28 32 37 29 35 34 37 48
25 29 35 41 45 44 46 35 32 23 18 17 16 16 18 21 22 29 28 22 21 21 24 27 27 26 30 30 30 39 24 16 26 24 32 34 34 34 31 30 35 39 39
30 35 40 44 45 43 39 29 26 20 15 12 14 17 22 23 23 19 13 14 14 14 17 18 23 25 23 25 27 27 25 21 25 28 32 27 26 25 27 27 28 34 39
35 40 44 47 42 37 33 27 23 18 12 11 11 14 22 25 21 15 11 8 12 9 10 10 11 10 16 19 21 20 21 15 18 12 20 27 25 20 14 22 27 28 39
Wind_Direction_500mb
158 177 187 196 195 193 198 206 213 210 226 271 291 296 290 282 277 277 278 277 276 280 285 283 276 270 270 266 261 255 251 245 244 245 240 236 234 230 226 224 213 165 212
163 189 188 195 197 197 196 206 215 217 228 258 284 297 296 291 285 277 276 277 277 277 286 295 290 278 273 269 264 258 253 249 244 242 243 238 239 239 228 223 216 202 209
167 194 194 192 199 197 196 207 215 219 228 249 281 298 300 295 290 285 273 270 270 274 287 293 298 295 277 274 275 265 259 252 249 245 242 242 253 246 240 235 221 215 212
175 198 197 193 199 199 200 209 217 221 226 242 276 295 298 296 289 283 273 260 250 265 281 288 290 289 291 276 273 278 272 262 253 250 244 252 256 261 255 236 234 225 221
183 208 200 199 200 200 203 210 215 221 229 245 277 292 297 295 287 279 271 263 261 267 274 282 287 274 275 282 278 274 275 275 266 256 260 249 242 256 265 249 231 228 221
201 196 208 202 207 207 206 210 216 222 231 247 269 285 295 292 286 276 271 267 273 275 278 278 280 266 258 264 274 278 269 276 274 267 261 248 243 236 253 248 235 227 223
218 209 221 205 211 215 213 215 218 224 234 250 269 287 298 299 284 270 274 279 276 272 273 271 270 262 257 258 263 263 263 263 264 261 256 247 245 258 248 248 240 227 222
227 216 218 221 215 219 220 220 222 227 235 248 262 276 292 298 287 284 281 282 276 272 269 268 266 266 264 258 253 259 262 258 258 263 253 243 248 247 253 245 242 232 224
231 223 214 237 220 220 223 223 226 228 237 246 257 267 276 287 282 275 274 280 280 277 274 272 271 267 260 262 253 252 259 257 253 237 250 253 248 256 262 248 236 233 227
252 234 225 225 229 222 224 224 227 232 239 245 255 263 271 281 279 281 286 282 275 281 281 277 270 265 261 255 255 254 258 257 255 247 249 246 241 244 256 248 235 235 231
266 248 233 227 223 223 221 227 227 231 236 241 251 260 269 273 271 286 305 282 290 288 284 278 275 267 262 257 259 264 259 253 245 248 241 250 247 252 260 254 233 232 232
265 249 238 225 222 218 213 219 233 232 232 240 249 248 268 267 258 255 255 268 289 290 280 284 285 279 271 259 262 274 260 253 239 238 239 242 252 248 258 244 229 226 230
273 267 234 228 217 215 213 212 219 216 222 228 232 238 244 247 258 268 280 288 295 304 305 289 303 303 255 249 255 243 246 240 235 236 235 244 248 254 261 240 230 224 226
262 255 242 221 223 213 210 213 214 211 216 218 225 235 240 247 259 264 268 267 267 264 259 266 257 253 250 250 253 254 257 243 233 235 229 234 243 252 256 240 230 224 226
264 258 251 220 229 222 205 213 210 210 212 217 219 231 239 239 250 255 262 256 256 260 263 261 255 254 262 259 256 249 249 242 222 246 235 239 252 258 251 239 231 224 224
263 257 247 223 225 232 217 201 212 207 209 211 218 229 243 239 248 253 264 269 263 255 256 256 257 255 262 257 258 246 246 231 226 216 248 247 244 255 244 235 232 227 223
260 255 239 222 221 233 223 204 210 212 202 209 216 226 231 242 253 257 257 265 259 251 251 253 259 251 255 254 255 245 246 228 223 224 231 228 245 266 243 234 234 227 223
257 252 243 220 218 222 213 205 208 211 207 209 213 222 238 242 257 253 263 260 262 254 253 257 251 249 247 247 254 242 239 232 230 233 216 219 229 246 259 250 240 230 221
256 251 239 219 212 211 209 206 207 209 204 207 213 223 235 245 255 264 262 269 267 255 252 248 244 243 243 244 249 254 235 226 224 218 218 224 224 224 238 248 245 236 220
249 242 229 216 204 209 201 199 203 208 206 209 217 228 238 249 261 266 264 269 263 254 250 249 237 238 238 248 251 245 237 215 219 212 218 222 225 224 221 233 234 240 218
250 225 209 204 199 194 192 193 197 204 204 212 222 234 243 255 262 266 263 267 258 253 246 248 231 239 239 238 245 240 238 209 219 215 214 221 219 217 219 217 221 227 225
224 210 198 189 187 184 188 187 195 198 209 218 229 237 247 264 265 258 260 266 260 258 247 242 232 240 241 238 230 222 224 225 215 214 219 218 216 214 224 213 216 205 207
201 191 181 178 178 174 179 178 181 187 194 215 233 247 263 266 260 267 271 268 264 257 246 239 233 240 240 238 230 199 200 211 197 209 213 212 221 218 207 215 210 216 224
186 174 169 169 167 165 171 178 178 186 208 225 223 248 238 262 261 271 269 266 262 249 242 244 245 239 235 232 224 218 228 217 185 183 202 205 215 218 214 205 217 212 205
173 166 162 160 158 168 159 173 181 190 220 236 239 245 268 257 259 261 259 244 244 242 250 242 230 241 224 220 208 211 222 229 232 218 178 197 203 203 212 208 207 202 196
162 159 155 156 158 160 164 171 160 189 199 220 236 256 265 274 270 240 231 251 247 248 252 233 210 215 206 212 211 214 211 204 221 211 175 175 182 183 165 190 188 182 191
Wind_Speed_850mb
23 13 24 25 22 18 15 14 14 11 8 8 9 12 12 14 17 20 23 23 21 21 20 18 19 22 24 25 26 29 31 32 31 30 28 28 25 24 21 18 13 17 20
29 17 25 26 23 21 17 17 16 14 12 10 10 12 14 16 17 18 21 22 21 20 20 22 19 19 21 23 24 27 29 32 36 34 32 27 29 29 27 25 16 23 25
32 21 27 25 25 23 19 20 18 18 16 14 11 12 14 17 19 19 19 21 21 18 19 21 25 23 17 21 23 24 27 30 34 37 35 29 22 30 34 30 23 26 28
31 22 26 26 29 27 22 22 22 21 18 16 12 13 15 18 20 21 20 19 20 19 20 21 23 26 23 17 20 23 24 28 30 34 34 25 22 33 33 39 31 28 27
31 25 28 30 29 30 27 26 21 20 17 14 13 15 18 19 21 21 22 22 23 26 27 26 26 23 23 23 18 18 22 24 26 28 24 27 23 32 33 34 37 30 29
23 32 29 33 32 33 33 29 24 20 16 15 13 16 18 21 22 23 23 26 29 30 31 31 30 25 25 29 27 25 22 24 24 22 24 23 31 31 31 33 36 35 31
22 29 36 35 37 38 40 36 30 25 20 18 18 19 21 22 20 22 26 31 33 33 35 36 35 33 33 36 37 36 33 28 25 21 23 25 29 33 44 32 35 37 34
23 32 38 36 42 44 47 44 39 33 28 25 26 24 24 25 24 26 33 39 37 38 39 42 41 41 39 37 39 39 39 36 26 25 25 28 30 40 41 44 38 34 36
27 34 38 44 46 51 52 51 48 42 37 33 32 31 28 28 28 30 42 42 39 40 43 47 49 48 48 44 43 42 42 39 36 28 31 29 36 41 42 44 38 36 34
30 36 38 40 41 53 57 60 55 48 44 41 38 36 34 34 33 36 37 40 38 38 37 40 42 44 47 51 49 50 47 46 39 31 32 30 34 39 42 38 36 36 36
36 37 40 43 39 43 51 57 60 54 50 46 43 41 40 32 25 34 35 38 46 42 40 36 34 35 38 43 47 48 47 41 34 33 32 40 43 48 49 41 39 35 35
46 40 43 45 47 43 40 43 49 58 55 50 43 31 28 23 25 29 31 46 44 40 35 32 29 30 32 26 27 32 36 38 37 36 34 41 45 41 43 42 39 38 36
50 34 41 53 58 52 43 44 36 37 36 35 34 32 29 26 25 27 25 28 33 29 26 25 24 23 19 22 32 27 38 28 35 38 39 43 47 49 45 41 37 39 38
47 41 39 51 60 61 48 48 42 35 38 33 31 35 31 26 25 24 24 26 27 25 28 22 23 28 36 33 28 31 41 28 29 33 46 49 45 47 46 41 38 40 40
49 43 40 52 67 65 67 51 49 45 41 36 33 30 29 27 27 26 26 29 27 28 27 27 29 35 34 30 28 30 39 38 41 24 33 43 50 44 46 41 39 42 41
49 44 37 53 70 65 63 61 63 58 43 40 32 29 33 29 27 26 30 40 33 30 29 34 36 29 30 29 29 33 33 31 47 31 34 49 47 40 45 44 37 40 42
48 44 39 52 67 70 62 71 59 47 46 37 31 31 31 31 28 32 30 35 37 36 37 35 35 33 29 29 34 29 32 35 36 43 40 31 26 28 36 42 38 38 41
47 45 40 45 57 66 56 59 56 46 41 36 29 27 30 31 31 30 33 38 39 36 33 35 32 31 31 30 30 25 28 29 37 36 32 31 29 26 23 23 37 37 40
47 49 45 47 53 55 50 48 49 47 37 31 27 27 28 29 27 37 36 41 39 35 34 32 30 35 31 33 24 29 26 29 25 27 24 30 32 28 28 29 23 34 40
38 39 41 46 55 57 46 49 42 41 34 29 26 26 28 28 29 38 38 45 38 38 38 32 29 27 29 32 29 26 25 24 29 30 30 29 28 28 29 24 24 30 40
33 34 39 47 49 56 49 48 45 39 30 26 25 25 28 26 33 35 39 40 37 37 32 32 32 35 34 33 24 27 29 31 29 29 30 28 29 29 29 33 29 24 33
25 30 34 38 48 51 47 44 38 31 24 22 21 23 23 26 29 34 37 35 37 36 34 30 36 34 35 33 28 21 16 26 36 33 33 31 30 28 33 33 32 31 29
23 29 34 41 47 48 40 39 32 26 21 21 21 21 23 22 28 30 30 32 32 31 32 28 34 36 35 33 36 22 15 17 30 34 37 28 32 37 29 35 34 37 48
25 29 35 41 45 44 46 35 32 23 18 17 16 16 18 21 22 29 28 22 21 21 24 27 27 26 30 30 30 39 24 16 26 24 32 34 34 34 31 30 35 39 39
30 35 40 44 45 43 39 29 26 20 15 12 14 17 22 23 23 19 13 14 14 14 17 18 23 25 23 25 27 27 25 21 25 28 32 27 26 25 27 27 28 34 39
35 40 44 47 42 37 33 27 23 18 12 11 11 14 22 25 21 15 11 8 12 9 10 10 11 10 16 19 21 20 21 15 18 12 20 27 25 20 14 22 27 28 39
Wind_Direction_850mb
158 177 187 196 195 193 198 206 213 210 226 271 291 296 290 282 277 277 278 277 276 280 285 283 276 270 270 266 261 255 251 245 244 245 240 236 234 230 226 224 213 165 212
163 189 188 195 197 197 196 206 215 217 228 258 284 297 296 291 285 277 276 277 277 277 286 295 290 278 273 269 264 258 253 249 244 242 243 238 239 239 228 223 216 202 209
167 194 194 192 199 197 196 207 215 219 228 249 281 298 300 295 290 285 273 270 270 274 287 293 298 295 277 274 275 265 259 252 249 245 242 242 253 246 240 235 221 215 212
175 198 197 193 199 199 200 209 217 221 226 242 276 295 298 296 289 283 273 260 250 265 281 288 290 289 291 276 273 278 272 262 253 250 244 252 256 261 255 236 234 225 221
183 208 200 199 200 200 203 210 215 221 229 245 277 292 297 295 287 279 271 263 261 267 274 282 287 274 275 282 278 274 275 275 266 256 260 249 242 256 265 249 231 228 221
201 196 208 202 207 207 206 210 216 222 231 247 269 285 295 292 286 276 271 267 273 275 278 278 280 266 258 264 274 278 269 276 274 267 261 248 243 236 253 248 235 227 223
218 209 221 205 211 215 213 215 218 224 234 250 269 287 298 299 284 270 274 279 276 272 273 271 270 262 257 258 263 263 263 263 264 261 256 247 245 258 248 248 240 227 222
227 216 218 221 215 219 220 220 222 227 235 248 262 276 292 298 287 284 281 282 276 272 269 268 266 266 264 258 253 259 262 258 258 263 253 243 248 247 253 245 242 232 224
231 223 214 237 220 220 223 223 226 228 237 246 257 267 276 287 282 275 274 280 280 277 274 272 271 267 260 262 253 252 259 257 253 237 250 253 248 256 262 248 236 233 227
252 234 225 225 229 222 224 224 227 232 239 245 255 263 271 281 279 281 286 282 275 281 281 277 270 265 261 255 255 254 258 257 255 247 249 246 241 244 256 248 235 235 231
266 248 233 227 223 223 221 227 227 231 236 241 251 260 269 273 271 286 305 282 290 288 284 278 275 267 262 257 259 264 259 253 245 248 241 250 247 252 260 254 233 232 232
265 249 238 225 222 218 213 219 233 232 232 240 249 248 268 267 258 255 255 268 289 290 280 284 285 279 271 259 262 274 260 253 239 238 239 242 252 248 258 244 229 226 230
273 267 234 228 217 215 213 212 219 216 222 228 232 238 244 247 258 268 280 288 295 304 305 289 303 303 255 249 255 243 246 240 235 236 235 244 248 254 261 240 230 224 226
262 255 242 221 223 213 210 213 214 211 216 218 225 235 240 247 259 264 268 267 267 264 259 266 257 253 250 250 253 254 257 243 233 235 229 234 243 252 256 240 230 224 226
264 258 251 220 229 222 205 213 210 210 212 217 219 231 239 239 250 255 262 256 256 260 263 261 255 254 262 259 256 249 249 242 222 246 235 239 252 258 251 239 231 224 224
263 257 247 223 225 232 217 201 212 207 209 211 218 229 243 239 248 253 264 269 263 255 256 256 257 255 262 257 258 246 246 231 226 216 248 247 244 255 244 235 232 227 223
260 255 239 222 221 233 223 204 210 212 202 209 216 226 231 242 253 257 257 265 259 251 251 253 259 251 255 254 255 245 246 228 223 224 231 228 245 266 243 234 234 227 223
257 252 243 220 218 222 213 205 208 211 207 209 213 222 238 242 257 253 263 260 262 254 253 257 251 249 247 247 254 242 239 232 230 233 216 219 229 246 259 250 240 230 221
256 251 239 219 212 211 209 206 207 209 204 207 213 223 235 245 255 264 262 269 267 255 252 248 244 243 243 244 249 254 235 226 224 218 218 224 224 224 238 248 245 236 220
249 242 229 216 204 209 201 199 203 208 206 209 217 228 238 249 261 266 264 269 263 254 250 249 237 238 238 248 251 245 237 215 219 212 218 222 225 224 221 233 234 240 218
250 225 209 204 199 194 192 193 197 204 204 212 222 234 243 255 262 266 263 267 258 253 246 248 231 239 239 238 245 240 238 209 219 215 214 221 219 217 219 217 221 227 225
224 210 198 189 187 184 188 187 195 198 209 218 229 237 247 264 265 258 260 266 260 258 247 242 232 240 241 238 230 222 224 225 215 214 219 218 216 214 224 213 216 205 207
201 191 181 178 178 174 179 178 181 187 194 215 233 247 263 266 260 267 271 268 264 257 246 239 233 240 240 238 230 199 200 211 197 209 213 212 221 218 207 215 210 216 224
186 174 169 169 167 165 171 178 178 186 208 225 223 248 238 262 261 271 269 266 262 249 242 244 245 239 235 232 224 218 228 217 185 183 202 205 215 218 214 205 217 212 205
173 166 162 160 158 168 159 173 181 190 220 236 239 245 268 257 259 261 259 244 244 242 250 242 230 241 224 220 208 211 222 229 232 218 178 197 203 203 212 208 207 202 196
162 159 155 156 158 160 164 171 160 189 199 220 236 256 265 274 270 240 231 251 247 248 252 233 210 215 206 212 211 214 211 204 221 211 175 175 182 183 165 190 188 182 191